"Period start","avg(HW err(1)/warn(2) (#))","avg(Visibility (m))","avg(Weather code (#))","avg(Precip intensity (mm/h))","min(HW err(1)/warn(2) (#))","max(HW err(1)/warn(2) (#))","std(HW err(1)/warn(2) (#))","med(HW err(1)/warn(2) (#))","min(Visibility (m))","max(Visibility (m))","std(Visibility (m))","med(Visibility (m))","min(Weather code (#))","max(Weather code (#))","std(Weather code (#))","med(Weather code (#))","min(Precip intensity (mm/h))","max(Precip intensity (mm/h))","std(Precip intensity (mm/h))","med(Precip intensity (mm/h))"
2014-06-18 00:00:00,2,49374,0,0.00,2,2,0,2,46906,50000,1065,50000,0,0,0,0,0.00,0.00,0.00,0.00
2014-06-18 00:10:00,2,40827,0,0.00,2,2,0,2,28154,50000,6536,42717,0,0,0,0,0.00,0.00,0.00,0.00
2014-06-18 00:20:00,2,43549,0,0.00,2,2,0,2,31744,50000,7353,47432,0,0,0,0,0.00,0.00,0.00,0.00
2014-06-18 00:30:00,2,47078,0,0.00,2,2,0,2,41429,50000,3042,48354,0,0,0,0,0.00,0.00,0.00,0.00
2014-06-18 00:40:00,2,46944,0,0.00,2,2,0,2,43209,50000,2714,46742,0,0,0,0,0.00,0.00,0.00,0.00
2014-06-18 00:50:00,2,47531,0,0.00,2,2,0,2,40753,50000,3515,50000,0,0,0,0,0.00,0.00,0.00,0.00
2014-06-18 01:00:00,2,48961,0,0.00,2,2,0,2,43923,50000,1906,50000,0,0,0,0,0.00,0.00,0.00,0.00
2014-06-18 01:10:00,2,48701,0,0.00,2,2,0,2,43241,50000,2211,50000,0,0,0,0,0.00,0.00,0.00,0.00
2014-06-18 01:20:00,2,47299,0,0.00,2,2,0,2,41041,50000,3664,49440,0,0,0,0,0.00,0.00,0.00,0.00
2014-06-18 01:30:00,2,41849,0,0.00,2,2,0,2,23879,50000,9404,45777,0,0,0,0,0.00,0.00,0.00,0.00
2014-06-18 01:40:00,2,45309,0,0.00,2,2,0,2,27446,50000,6918,48032,0,0,0,0,0.00,0.00,0.00,0.00
2014-06-18 01:50:00,2,43809,0,0.00,2,2,0,2,32989,50000,5748,45942,0,0,0,0,0.00,0.00,0.00,0.00
2014-06-18 02:00:00,2,43583,0,0.00,2,2,0,2,34934,50000,4998,43101,0,0,0,0,0.00,0.00,0.00,0.00
2014-06-18 02:10:00,2,44330,0,0.00,2,2,0,2,29144,50000,7581,46952,0,0,0,0,0.00,0.00,0.00,0.00
2014-06-18 02:20:00,2,44335,0,0.00,2,2,0,2,33150,50000,5712,46161,0,0,0,0,0.00,0.00,0.00,0.00
2014-06-18 02:30:00,2,43837,0,0.00,2,2,0,2,37968,50000,4259,43516,0,0,0,0,0.00,0.00,0.00,0.00
2014-06-18 02:40:00,2,43888,0,0.00,2,2,0,2,28487,50000,6864,46242,0,0,0,0,0.00,0.00,0.00,0.00
2014-06-18 02:50:00,2,46321,0,0.00,2,2,0,2,34739,50000,5799,50000,0,0,0,0,0.00,0.00,0.00,0.00
2014-06-18 03:00:00,2,42523,0,0.00,2,2,0,2,29937,50000,6234,43680,0,0,0,0,0.00,0.00,0.00,0.00
2014-06-18 03:10:00,2,44828,0,0.00,2,2,0,2,40377,50000,2842,44312,0,0,0,0,0.00,0.00,0.00,0.00
2014-06-18 03:20:00,2,38502,0,0.00,2,2,0,2,29557,47805,5710,37540,0,0,0,0,0.00,0.00,0.00,0.00
2014-06-18 03:30:00,2,45127,0,0.00,2,2,0,2,32237,50000,5806,48206,0,0,0,0,0.00,0.00,0.00,0.00
2014-06-18 03:40:00,2,47023,0,0.00,2,2,0,2,39147,50000,3475,48207,0,0,0,0,0.00,0.00,0.00,0.00
2014-06-18 03:50:00,2,41495,0,0.00,2,2,0,2,28450,50000,7458,43478,0,0,0,0,0.00,0.00,0.00,0.00
2014-06-18 04:00:00,2,40665,0,0.00,2,2,0,2,26404,49947,5983,41733,0,0,0,0,0.00,0.00,0.00,0.00
2014-06-18 04:10:00,2,43655,0,0.00,2,2,0,2,34422,50000,5600,45944,0,0,0,0,0.00,0.00,0.00,0.00
2014-06-18 04:20:00,2,46938,0,0.00,2,2,0,2,40690,50000,3399,48290,0,0,0,0,0.00,0.00,0.00,0.00
2014-06-18 04:30:00,2,48528,0,0.00,2,2,0,2,41367,50000,2691,50000,0,0,0,0,0.00,0.00,0.00,0.00
2014-06-18 04:40:00,2,48084,0,0.00,2,2,0,2,41559,50000,3193,50000,0,0,0,0,0.00,0.00,0.00,0.00
2014-06-18 04:50:00,2,45151,0,0.00,2,2,0,2,32357,50000,6500,50000,0,0,0,0,0.00,0.00,0.00,0.00
2014-06-18 05:00:00,2,48162,0,0.00,2,2,0,2,38696,50000,3609,50000,0,0,0,0,0.00,0.00,0.00,0.00
2014-06-18 05:10:00,2,47454,0,0.00,2,2,0,2,35871,50000,4642,49754,0,0,0,0,0.00,0.00,0.00,0.00
2014-06-18 05:20:00,2,48444,0,0.00,2,2,0,2,40295,50000,3159,50000,0,0,0,0,0.00,0.00,0.00,0.00
2014-06-18 05:30:00,2,47194,0,0.00,2,2,0,2,40577,50000,3376,48762,0,0,0,0,0.00,0.00,0.00,0.00
2014-06-18 05:40:00,2,47001,0,0.00,2,2,0,2,37945,50000,4087,50000,0,0,0,0,0.00,0.00,0.00,0.00
2014-06-18 05:50:00,2,46083,0,0.00,2,2,0,2,35027,50000,5388,49839,0,0,0,0,0.00,0.00,0.00,0.00
2014-06-18 06:00:00,2,49845,0,0.00,2,2,0,2,48937,50000,335,50000,0,0,0,0,0.00,0.00,0.00,0.00
2014-06-18 06:10:00,2,48542,0,0.00,2,2,0,2,41670,50000,2908,50000,0,0,0,0,0.00,0.00,0.00,0.00
2014-06-18 06:20:00,2,49772,0,0.00,2,2,0,2,48982,50000,367,50000,0,0,0,0,0.00,0.00,0.00,0.00
2014-06-18 06:30:00,2,48957,0,0.00,2,2,0,2,42216,50000,2382,50000,0,0,0,0,0.00,0.00,0.00,0.00
2014-06-18 06:40:00,2,46650,0,0.00,2,2,0,2,43222,50000,2748,46624,0,0,0,0,0.00,0.00,0.00,0.00
2014-06-18 06:50:00,2,45048,0,0.00,2,2,0,2,35396,50000,4566,46384,0,0,0,0,0.00,0.00,0.00,0.00
2014-06-18 07:00:00,2,48142,0,0.00,2,2,0,2,38951,50000,3289,50000,0,0,0,0,0.00,0.00,0.00,0.00
2014-06-18 07:10:00,2,49202,0,0.00,2,2,0,2,43150,50000,2045,50000,0,0,0,0,0.00,0.00,0.00,0.00
2014-06-18 07:20:00,2,49872,0,0.00,2,2,0,2,49024,50000,297,50000,0,0,0,0,0.00,0.00,0.00,0.00
2014-06-18 07:30:00,2,48606,0,0.00,2,2,0,2,41532,50000,2599,50000,0,0,0,0,0.00,0.00,0.00,0.00
2014-06-18 07:40:00,2,45229,0,0.00,2,2,0,2,36107,50000,4873,47108,0,0,0,0,0.00,0.00,0.00,0.00
2014-06-18 07:50:00,2,49324,0,0.00,2,2,0,2,47463,50000,1019,50000,0,0,0,0,0.00,0.00,0.00,0.00
2014-06-18 08:00:00,2,48013,0,0.00,2,2,0,2,42295,50000,2627,49358,0,0,0,0,0.00,0.00,0.00,0.00
2014-06-18 08:10:00,2,49700,0,0.00,2,2,0,2,47597,50000,723,50000,0,0,0,0,0.00,0.00,0.00,0.00
2014-06-18 08:20:00,2,49631,0,0.00,2,2,0,2,46308,50000,1108,50000,0,0,0,0,0.00,0.00,0.00,0.00
2014-06-18 08:30:00,2,49202,0,0.00,2,2,0,2,45281,50000,1498,50000,0,0,0,0,0.00,0.00,0.00,0.00
2014-06-18 08:40:00,2,49600,0,0.00,2,2,0,2,47195,50000,877,50000,0,0,0,0,0.00,0.00,0.00,0.00
2014-06-18 08:50:00,2,50000,0,0.00,2,2,0,2,50000,50000,0,50000,0,0,0,0,0.00,0.00,0.00,0.00
2014-06-18 09:00:00,2,49937,0,0.00,2,2,0,2,49373,50000,188,50000,0,0,0,0,0.00,0.00,0.00,0.00
2014-06-18 09:10:00,2,50000,0,0.00,2,2,0,2,50000,50000,0,50000,0,0,0,0,0.00,0.00,0.00,0.00
2014-06-18 09:20:00,2,49818,0,0.00,2,2,0,2,48175,50000,548,50000,0,0,0,0,0.00,0.00,0.00,0.00
2014-06-18 09:30:00,2,50000,0,0.00,2,2,0,2,50000,50000,0,50000,0,0,0,0,0.00,0.00,0.00,0.00
2014-06-18 09:40:00,2,50000,0,0.00,2,2,0,2,50000,50000,0,50000,0,0,0,0,0.00,0.00,0.00,0.00
2014-06-18 09:50:00,2,50000,0,0.00,2,2,0,2,50000,50000,0,50000,0,0,0,0,0.00,0.00,0.00,0.00
2014-06-18 10:00:00,2,50000,0,0.00,2,2,0,2,50000,50000,0,50000,0,0,0,0,0.00,0.00,0.00,0.00
2014-06-18 10:10:00,2,48930,0,0.00,2,2,0,2,43745,50000,2146,50000,0,0,0,0,0.00,0.00,0.00,0.00
2014-06-18 10:20:00,2,49635,0,0.00,2,2,0,2,47913,50000,739,50000,0,0,0,0,0.00,0.00,0.00,0.00
2014-06-18 10:30:00,2,49029,0,0.00,2,2,0,2,43792,50000,1919,50000,0,0,0,0,0.00,0.00,0.00,0.00
2014-06-18 10:40:00,2,49556,0,0.00,0,2,1,2,46586,50000,1036,50000,0,0,0,0,0.00,0.00,0.00,0.00
2014-06-18 10:50:00,0,49954,0,0.00,0,2,1,0,49540,50000,138,50000,0,0,0,0,0.00,0.00,0.00,0.00
2014-06-18 11:00:00,0,50000,0,0.00,0,0,0,0,50000,50000,0,50000,0,0,0,0,0.00,0.00,0.00,0.00
2014-06-18 11:10:00,0,50000,0,0.00,0,0,0,0,50000,50000,0,50000,0,0,0,0,0.00,0.00,0.00,0.00
2014-06-18 11:20:00,0,49299,0,0.00,0,2,1,0,44489,50000,1665,50000,0,0,0,0,0.00,0.00,0.00,0.00
2014-06-18 11:30:00,1,46103,0,0.00,0,2,1,1,39489,50000,4267,47826,0,0,0,0,0.00,0.00,0.00,0.00
2014-06-18 11:40:00,1,41060,0,0.00,0,2,1,2,24934,50000,7668,41898,0,0,0,0,0.00,0.00,0.00,0.00
2014-06-18 11:50:00,0,47909,0,0.00,0,0,0,0,41183,50000,2902,49258,0,0,0,0,0.00,0.00,0.00,0.00
2014-06-18 12:00:00,0,48988,0,0.00,0,0,0,0,43592,50000,1905,50000,0,0,0,0,0.00,0.00,0.00,0.00
2014-06-18 12:10:00,0,49805,0,0.00,0,0,0,0,48555,50000,439,50000,0,0,0,0,0.00,0.00,0.00,0.00
2014-06-18 12:20:00,0,49981,0,0.00,0,0,0,0,49806,50000,58,50000,0,0,0,0,0.00,0.00,0.00,0.00
2014-06-18 12:30:00,0,49941,0,0.00,0,0,0,0,49406,50000,178,50000,0,0,0,0,0.00,0.00,0.00,0.00
2014-06-18 12:40:00,0,49895,0,0.00,0,0,0,0,48954,50000,314,50000,0,0,0,0,0.00,0.00,0.00,0.00
2014-06-18 12:50:00,2,50000,0,0.00,0,2,1,2,50000,50000,0,50000,0,0,0,0,0.00,0.00,0.00,0.00
2014-06-18 13:00:00,2,50000,0,0.00,2,2,0,2,50000,50000,0,50000,0,0,0,0,0.00,0.00,0.00,0.00
2014-06-18 13:10:00,2,49993,0,0.00,2,2,0,2,49929,50000,21,50000,0,0,0,0,0.00,0.00,0.00,0.00
2014-06-18 13:20:00,2,50000,0,0.00,2,2,0,2,50000,50000,0,50000,0,0,0,0,0.00,0.00,0.00,0.00
2014-06-18 13:30:00,2,49850,0,0.00,2,2,0,2,48825,50000,355,50000,0,0,0,0,0.00,0.00,0.00,0.00
2014-06-18 13:40:00,2,50000,0,0.00,2,2,0,2,50000,50000,0,50000,0,0,0,0,0.00,0.00,0.00,0.00
2014-06-18 13:50:00,2,50000,0,0.00,2,2,0,2,50000,50000,0,50000,0,0,0,0,0.00,0.00,0.00,0.00
2014-06-18 14:00:00,2,50000,0,0.00,2,2,0,2,50000,50000,0,50000,0,0,0,0,0.00,0.00,0.00,0.00
2014-06-18 14:10:00,2,50000,0,0.00,2,2,0,2,50000,50000,0,50000,0,0,0,0,0.00,0.00,0.00,0.00
2014-06-18 14:20:00,2,49724,0,0.00,2,2,0,2,47243,50000,827,50000,0,0,0,0,0.00,0.00,0.00,0.00
2014-06-18 14:30:00,1,50000,0,0.00,0,2,1,2,50000,50000,0,50000,0,0,0,0,0.00,0.00,0.00,0.00
2014-06-18 14:40:00,0,49631,0,0.00,0,0,0,0,46310,50000,1107,50000,0,0,0,0,0.00,0.00,0.00,0.00
2014-06-18 14:50:00,0,50000,0,0.00,0,0,0,0,50000,50000,0,50000,0,0,0,0,0.00,0.00,0.00,0.00
2014-06-18 15:00:00,0,50000,0,0.00,0,0,0,0,50000,50000,0,50000,0,0,0,0,0.00,0.00,0.00,0.00
2014-06-18 15:10:00,0,49973,0,0.00,0,0,0,0,49733,50000,80,50000,0,0,0,0,0.00,0.00,0.00,0.00
2014-06-18 15:20:00,0,49954,0,0.00,0,0,0,0,49538,50000,139,50000,0,0,0,0,0.00,0.00,0.00,0.00
2014-06-18 15:30:00,0,49879,0,0.00,0,2,1,0,49065,50000,283,50000,0,0,0,0,0.00,0.00,0.00,0.00
2014-06-18 15:40:00,2,50000,0,0.00,0,2,1,2,50000,50000,0,50000,0,0,0,0,0.00,0.00,0.00,0.00
2014-06-18 15:50:00,2,50000,0,0.00,2,2,0,2,50000,50000,0,50000,0,0,0,0,0.00,0.00,0.00,0.00
2014-06-18 16:00:00,2,50000,0,0.00,2,2,0,2,50000,50000,0,50000,0,0,0,0,0.00,0.00,0.00,0.00
2014-06-18 16:10:00,2,50000,0,0.00,2,2,0,2,50000,50000,0,50000,0,0,0,0,0.00,0.00,0.00,0.00
2014-06-18 16:20:00,2,49988,0,0.00,2,2,0,2,49878,50000,37,50000,0,0,0,0,0.00,0.00,0.00,0.00
2014-06-18 16:30:00,2,49463,0,0.00,2,2,0,2,46168,50000,1190,50000,0,0,0,0,0.00,0.00,0.00,0.00
2014-06-18 16:40:00,2,49943,0,0.00,0,2,1,2,49426,50000,172,50000,0,0,0,0,0.00,0.00,0.00,0.00
2014-06-18 16:50:00,2,50000,0,0.00,0,2,1,2,50000,50000,0,50000,0,0,0,0,0.00,0.00,0.00,0.00
2014-06-18 17:00:00,2,50000,0,0.00,2,2,0,2,50000,50000,0,50000,0,0,0,0,0.00,0.00,0.00,0.00
2014-06-18 17:10:00,2,50000,0,0.00,2,2,0,2,50000,50000,0,50000,0,0,0,0,0.00,0.00,0.00,0.00
2014-06-18 17:20:00,1,49775,0,0.00,0,2,1,2,47751,50000,675,50000,0,0,0,0,0.00,0.00,0.00,0.00
2014-06-18 17:30:00,0,50000,0,0.00,0,0,0,0,50000,50000,0,50000,0,0,0,0,0.00,0.00,0.00,0.00
2014-06-18 17:40:00,0,49951,0,0.00,0,0,0,0,49514,50000,146,50000,0,0,0,0,0.00,0.00,0.00,0.00
2014-06-18 17:50:00,0,50000,0,0.00,0,0,0,0,50000,50000,0,50000,0,0,0,0,0.00,0.00,0.00,0.00
2014-06-18 18:00:00,0,49945,0,0.00,0,0,0,0,49453,50000,164,50000,0,0,0,0,0.00,0.00,0.00,0.00
2014-06-18 18:10:00,0,49959,0,0.00,0,0,0,0,49590,50000,123,50000,0,0,0,0,0.00,0.00,0.00,0.00
2014-06-18 18:20:00,0,50000,0,0.00,0,0,0,0,50000,50000,0,50000,0,0,0,0,0.00,0.00,0.00,0.00
2014-06-18 18:30:00,0,49502,0,0.00,0,0,0,0,46830,50000,1042,50000,0,0,0,0,0.00,0.00,0.00,0.00
2014-06-18 18:40:00,0,50000,0,0.00,0,0,0,0,50000,50000,0,50000,0,0,0,0,0.00,0.00,0.00,0.00
2014-06-18 18:50:00,0,49692,0,0.00,0,0,0,0,48215,50000,626,50000,0,0,0,0,0.00,0.00,0.00,0.00
2014-06-18 19:00:00,0,49362,0,0.00,0,0,0,0,45826,50000,1348,50000,0,0,0,0,0.00,0.00,0.00,0.00
2014-06-18 19:10:00,0,49923,0,0.00,0,0,0,0,49228,50000,232,50000,0,0,0,0,0.00,0.00,0.00,0.00
2014-06-18 19:20:00,0,50000,0,0.00,0,0,0,0,50000,50000,0,50000,0,0,0,0,0.00,0.00,0.00,0.00
2014-06-18 19:30:00,0,49967,0,0.00,0,0,0,0,49668,50000,100,50000,0,0,0,0,0.00,0.00,0.00,0.00
2014-06-18 19:40:00,0,50000,0,0.00,0,0,0,0,50000,50000,0,50000,0,0,0,0,0.00,0.00,0.00,0.00
2014-06-18 19:50:00,0,50000,0,0.00,0,0,0,0,50000,50000,0,50000,0,0,0,0,0.00,0.00,0.00,0.00
2014-06-18 20:00:00,0,50000,0,0.00,0,0,0,0,50000,50000,0,50000,0,0,0,0,0.00,0.00,0.00,0.00
2014-06-18 20:10:00,1,50000,0,0.00,0,2,1,0,50000,50000,0,50000,0,0,0,0,0.00,0.00,0.00,0.00
2014-06-18 20:20:00,2,49618,0,0.00,2,2,0,2,46176,50000,1147,50000,0,0,0,0,0.00,0.00,0.00,0.00
2014-06-18 20:30:00,2,50000,0,0.00,2,2,0,2,50000,50000,0,50000,0,0,0,0,0.00,0.00,0.00,0.00
2014-06-18 20:40:00,2,49374,0,0.00,2,2,0,2,46492,50000,1263,50000,0,0,0,0,0.00,0.00,0.00,0.00
2014-06-18 20:50:00,2,49745,0,0.00,2,2,0,2,47448,50000,766,50000,0,0,0,0,0.00,0.00,0.00,0.00
2014-06-18 21:00:00,2,48260,0,0.00,2,2,0,2,43700,50000,2154,49548,0,0,0,0,0.00,0.00,0.00,0.00
2014-06-18 21:10:00,2,49302,0,0.00,0,2,1,2,45449,50000,1394,50000,0,0,0,0,0.00,0.00,0.00,0.00
2014-06-18 21:20:00,2,48976,0,0.00,2,2,0,2,41758,50000,2430,50000,0,0,0,0,0.00,0.00,0.00,0.00
2014-06-18 21:30:00,2,48280,0,0.00,0,2,1,2,43660,50000,2230,49815,0,0,0,0,0.00,0.00,0.00,0.00
2014-06-18 21:40:00,0,46967,0,0.00,0,0,0,0,32483,50000,5368,50000,0,0,0,0,0.00,0.00,0.00,0.00
2014-06-18 21:50:00,0,49126,0,0.00,0,0,0,0,48089,50000,882,49288,0,0,0,0,0.00,0.00,0.00,0.00
2014-06-18 22:00:00,0,46603,0,0.00,0,0,0,0,37689,50000,4600,49694,0,0,0,0,0.00,0.00,0.00,0.00
2014-06-18 22:10:00,0,49230,0,0.00,0,0,0,0,45164,50000,1601,50000,0,0,0,0,0.00,0.00,0.00,0.00
2014-06-18 22:20:00,0,48540,0,0.00,0,0,0,0,44288,50000,2218,50000,0,0,0,0,0.00,0.00,0.00,0.00
2014-06-18 22:30:00,0,48200,0,0.00,0,0,0,0,43436,50000,2384,49798,0,0,0,0,0.00,0.00,0.00,0.00
2014-06-18 22:40:00,0,49246,0,0.00,0,0,0,0,44883,50000,1624,50000,0,0,0,0,0.00,0.00,0.00,0.00
2014-06-18 22:50:00,0,49689,0,0.00,0,0,0,0,46888,50000,934,50000,0,0,0,0,0.00,0.00,0.00,0.00
2014-06-18 23:00:00,1,48278,0,0.00,0,2,1,2,37456,50000,3814,50000,0,0,0,0,0.00,0.00,0.00,0.00
2014-06-18 23:10:00,2,45374,0,0.00,2,2,0,2,36035,50000,3952,45108,0,0,0,0,0.00,0.00,0.00,0.00
2014-06-18 23:20:00,2,46359,0,0.00,2,2,0,2,36724,50000,4836,48882,0,0,0,0,0.00,0.00,0.00,0.00
2014-06-18 23:30:00,2,43107,0,0.00,2,2,0,2,32082,50000,6004,43386,0,0,0,0,0.00,0.00,0.00,0.00
2014-06-18 23:40:00,2,44072,0,0.00,2,2,0,2,29820,50000,6421,45525,0,0,0,0,0.00,0.00,0.00,0.00
2014-06-18 23:50:00,2,46977,0,0.00,0,2,1,2,38439,50000,4187,49650,0,0,0,0,0.00,0.00,0.00,0.00
